Weather History for KHRO - November, 2011

Change the Weather History Date:

Monday, November 14, 2011

  Actual Average Record
Temperature  
Mean Temperature 65 °F 49 °F  
Max Temperature 79 °F 60 °F 80 °F (1955)
Min Temperature 51 °F 39 °F 5 °F (1908)
Degree Days  
Heating Degree Days 0 16  
Month to date heating degree days 136 188  
Since 1 July heating degree days 403 453  
Cooling Degree Days 0 0  
Month to date cooling degree days 4 0  
Year to date cooling degree days 1863 1412  
Growing Degree Days 14 (Base 50)    
Moisture  
Dew Point 54 °F    
Average Humidity 66    
Maximum Humidity 89    
Minimum Humidity 43    
Precipitation  
Precipitation 0.18 in 0.15 in 1.53 in (1993)
Month to date precipitation 2.83 2.05  
Year to date precipitation 45.25 38.76  
Snow  
Snow 0.00 in 0.00 in 1.00 in (1976)
Month to date snowfall 0.0 0.0  
Since 1 July snowfall 0.0 0.1  
Since 1 September snowfall 0.0 0.1  
Snow Depth 0.00 in    
Sea Level Pressure  
Sea Level Pressure 29.73 in    
Wind  
Wind Speed 11 mph (SW)    
Max Wind Speed 24 mph    
Max Gust Speed 40 mph    
Visibility 10 miles    
Events Rain    
T = Trace of Precipitation, MM = Missing Value Source: NWS Daily Summary

Daily Weather History Graph

Daily Weather History Graph

Search for Another Location

Airport or City:

Trip Planner

Search our weather history database for the weather conditions in past years. The results will help you decide how hot, cold, wet, or windy it might be!

Date:

Astronomy

Nov. 14, 2011 Rise Set
Actual Time 6:48 AM CST 5:05 PM CST
Civil Twilight 6:21 AM CST 5:32 PM CST
Nautical Twilight 5:50 AM CST 6:03 PM CST
Astronomical Twilight 5:19 AM CST 6:34 PM CST
Moon 8:14 PM CST (11/14) 10:04 AM CST (11/14)
Length of Visible Light 11h 11m
Length of Day
10h 16m
Waning Gibbous, 86% of the Moon is Illuminated
Nov 14
Waning Gibbous
Nov 18
Last Quarter
Nov 25
New
Dec 2
First Quarter
Dec 10
Full

Hourly Weather History & Observations

Time (CST) Temp. Dew Point Humidity Pressure Visibility Wind Dir Wind Speed Gust Speed Precip Events Conditions
12:53 AM 71.1 °F 57.9 °F 63% 29.64 in 10.0 mi SSW 13.8 mph 25.3 mph N/A   Clear
1:53 AM 72.0 °F 57.9 °F 61% 29.64 in 10.0 mi SSW 17.3 mph 34.5 mph N/A   Clear
2:53 AM 71.1 °F 59.0 °F 66% 29.64 in 10.0 mi SSW 17.3 mph 29.9 mph N/A   Clear
3:53 AM 71.1 °F 59.0 °F 66% 29.65 in 10.0 mi SSW 12.7 mph 38.0 mph N/A   Clear
4:53 AM 70.0 °F 60.1 °F 71% 29.65 in 10.0 mi SSW 13.8 mph 23.0 mph N/A   Clear
5:53 AM 69.8 °F 60.8 °F 73% 29.70 in 10.0 mi SSW 17.3 mph 25.3 mph N/A   Clear
6:53 AM 70.0 °F 60.1 °F 71% 29.68 in 10.0 mi SSW 16.1 mph 24.2 mph N/A   Clear
7:53 AM 71.1 °F 59.0 °F 66% 29.68 in 10.0 mi SSW 16.1 mph 32.2 mph N/A   Clear
8:53 AM 73.0 °F 59.0 °F 61% 29.70 in 10.0 mi SSW 18.4 mph 35.7 mph N/A   Clear
9:53 AM 73.9 °F 57.9 °F 57% 29.73 in 10.0 mi SW 16.1 mph 31.1 mph N/A   Scattered Clouds
10:53 AM 75.0 °F 55.9 °F 51% 29.73 in 10.0 mi WSW 15.0 mph 25.3 mph N/A   Partly Cloudy
11:53 AM 77.0 °F 55.9 °F 48% 29.70 in 10.0 mi SW 9.2 mph 20.7 mph N/A   Clear
12:53 PM 77.0 °F 54.0 °F 45% 29.69 in 10.0 mi West 11.5 mph 20.7 mph N/A   Partly Cloudy
1:53 PM 73.9 °F 54.0 °F 50% 29.70 in 10.0 mi West 10.4 mph 19.6 mph N/A   Partly Cloudy
2:53 PM 71.1 °F 53.1 °F 53% 29.73 in 10.0 mi WNW 11.5 mph - 0.00 in   Scattered Clouds
3:53 PM 63.0 °F 52.0 °F 67% 29.77 in 10.0 mi NW 9.2 mph 17.3 mph 0.00 in Rain Light Rain
4:53 PM 60.1 °F 48.9 °F 67% 29.77 in 10.0 mi WNW 6.9 mph - 0.00 in   Partly Cloudy
5:53 PM 60.1 °F 48.0 °F 64% 29.79 in 10.0 mi NW 6.9 mph - N/A   Overcast
6:53 PM 54.0 °F 46.9 °F 77% 29.83 in 8.0 mi WNW 9.2 mph - 0.02 in Rain Light Rain
7:53 PM 52.0 °F 46.0 °F 80% 29.84 in 9.0 mi West 3.5 mph - 0.03 in Rain Light Rain
8:53 PM 51.1 °F 48.0 °F 89% 29.82 in 4.0 mi Calm Calm - 0.09 in Rain Rain
9:53 PM 53.1 °F 50.0 °F 89% 29.81 in 10.0 mi West 3.5 mph - 0.04 in Rain Light Rain
10:53 PM 53.1 °F 51.1 °F 93% 29.81 in 10.0 mi SSE 6.9 mph - 0.00 in   Overcast
11:53 PM 53.1 °F 52.0 °F 96% 29.79 in 10.0 mi SSE 6.9 mph - N/A   Overcast